Rm Thomas — FNMP — position and weather

sailwx.info

Track history (hours):
 
Tides and Currents Weather Stations Pressure Air Temp Water Temp Dewpoint Dewpoint Depression Visibility Wind Speed Wind Dir Waves Ship Positions

Rm Thomas

Last reported at 2014-Oct-20 03:31 UTC. Time now 2014-Oct-20 18:10 UTC.
Position N 44°59' W 000°33'.

Length 25 m; draft 4 m.

Type: Tug. MMSI: 228278700.

Date/timePositionNaut miles runAvg speedWind from/ knotsBaromVisibWave heightAir tempDewpointWater temp
2014-Oct-20 03:31N 44°59' W 000°33'6 0.3
2014-Oct-19 05:09N 44°53' W 000°32'0 0.0
2014-Oct-19 04:13N 44°53' W 000°32'0 0.0
2014-Oct-19 03:27N 44°53' W 000°32'7 7.5
2014-Oct-19 02:33N 44°60' W 000°33'1 1.5
2014-Oct-19 01:33N 45°01' W 000°35'3 3.4
2014-Oct-19 00:33N 44°58' W 000°32'5 4.2
2014-Oct-18 23:29N 44°53' W 000°32'0 0.0
2014-Oct-18 22:33N 44°53' W 000°32'0 0.0
2014-Oct-18 21:33N 44°53' W 000°32'0 0.0
2014-Oct-18 20:33N 44°53' W 000°32'  
2014-Oct-16 09:22N 44°55' W 000°33'1 0.0
2014-Oct-15 07:15N 44°56' W 000°33'1 0.1
2014-Oct-14 19:20N 44°55' W 000°33'5 6.4
2014-Oct-14 18:32N 44°60' W 000°33'4 3.8
2014-Oct-14 17:32N 44°56' W 000°33'6 0.7
2014-Oct-14 08:33N 45°02' W 000°36'6 5.1
2014-Oct-14 07:28N 44°57' W 000°33'0 0.0
2014-Oct-12 20:33N 44°56' W 000°33'2 0.1
2014-Oct-11 18:33N 44°59' W 000°32'2 1.7
2014-Oct-11 17:31N 45°00' W 000°34'5 5.0
2014-Oct-11 16:33N 44°56' W 000°33'2 0.3
2014-Oct-11 09:07N 44°53' W 000°32'4 0.3
2014-Oct-10 20:34N 44°57' W 000°33'4 3.5
2014-Oct-10 19:32N 45°00' W 000°34'1 0.6
2014-Oct-10 18:33N 45°01' W 000°35'5 5.4
2014-Oct-10 17:33N 44°56' W 000°33'1 0.1
2014-Oct-10 08:31N 44°55' W 000°32'2 2.1
2014-Oct-10 07:33N 44°57' W 000°33'  
Track history (hours):
 
Tides and Currents Weather Stations Pressure Air Temp Water Temp Dewpoint Dewpoint Depression Visibility Wind Speed Wind Dir Waves Ship Positions

Rm Thomas

Last reported at 2014-Oct-20 03:31 UTC. Time now 2014-Oct-20 18:10 UTC.
Position N 44°59' W 000°33'.

Length 25 m; draft 4 m.

Type: Tug. MMSI: 228278700.

Date/timePositionNaut miles runAvg speedWind from/ knotsBaromVisibWave heightAir tempDewpointWater temp
2014-Oct-20 03:31N 44°59' W 000°33'6 0.3
2014-Oct-19 05:09N 44°53' W 000°32'0 0.0
2014-Oct-19 04:13N 44°53' W 000°32'0 0.0
2014-Oct-19 03:27N 44°53' W 000°32'7 7.5
2014-Oct-19 02:33N 44°60' W 000°33'1 1.5
2014-Oct-19 01:33N 45°01' W 000°35'3 3.4
2014-Oct-19 00:33N 44°58' W 000°32'5 4.2
2014-Oct-18 23:29N 44°53' W 000°32'0 0.0
2014-Oct-18 22:33N 44°53' W 000°32'0 0.0
2014-Oct-18 21:33N 44°53' W 000°32'0 0.0
2014-Oct-18 20:33N 44°53' W 000°32'  
2014-Oct-16 09:22N 44°55' W 000°33'1 0.0
2014-Oct-15 07:15N 44°56' W 000°33'1 0.1
2014-Oct-14 19:20N 44°55' W 000°33'5 6.4
2014-Oct-14 18:32N 44°60' W 000°33'4 3.8
2014-Oct-14 17:32N 44°56' W 000°33'6 0.7
2014-Oct-14 08:33N 45°02' W 000°36'6 5.1
2014-Oct-14 07:28N 44°57' W 000°33'0 0.0
2014-Oct-12 20:33N 44°56' W 000°33'2 0.1
2014-Oct-11 18:33N 44°59' W 000°32'2 1.7
2014-Oct-11 17:31N 45°00' W 000°34'5 5.0
2014-Oct-11 16:33N 44°56' W 000°33'2 0.3
2014-Oct-11 09:07N 44°53' W 000°32'4 0.3
2014-Oct-10 20:34N 44°57' W 000°33'4 3.5
2014-Oct-10 19:32N 45°00' W 000°34'1 0.6
2014-Oct-10 18:33N 45°01' W 000°35'5 5.4
2014-Oct-10 17:33N 44°56' W 000°33'1 0.1
2014-Oct-10 08:31N 44°55' W 000°32'2 2.1
2014-Oct-10 07:33N 44°57' W 000°33'  

Dump ship's entire track history